When you browse on this site, cookies collect data to enhance your experience and personalize the content and advertising you see.
Visit our Privacy Policy to learn more. By continuing to use the site, you agree to this use of cookies and data.
  • In Austria
  • List of Countries
  • For 7 days
  • Water Temperature
  • Satellite Maps
  • Weather Map
  • News
  • Weather Widgets
  • user-avatar
    Login

    Hourly Weather Rosoman

    Today, 21 April, Sunday

    Time Temperature Precipitation Wind Pressure Humidity
    00:00 +8°C° 0 mm 1 mps 744 mmHg 77%
    01:00 +7°C° 0 mm 1 mps 744 mmHg 81%
    02:00 +7°C° 0 mm 1 mps 744 mmHg 83%
    03:00 +7°C° 0 mm 1 mps 744 mmHg 84%
    04:00 +5°C° 0 mm 0 mps 743 mmHg 85%
    05:00 +7°C° 0 mm 0 mps 743 mmHg 78%
    06:00 +8°C° 0 mm 0 mps 743 mmHg 72%
    07:00 +10°C° 0 mm 0 mps 743 mmHg 65%
    08:00 +12°C° 0 mm 0 mps 743 mmHg 57%
    09:00 +14°C° 0 mm 0 mps 743 mmHg 49%
    10:00 +18°C° 0 mm 1 mps 742 mmHg 41%
    11:00 +19°C° 0 mm 1 mps 742 mmHg 38%
    12:00 +19°C° 0 mm 1 mps 741 mmHg 35%
    13:00 +20°C° 0 mm 1 mps 741 mmHg 32%
    14:00 +20°C° 0 mm 1 mps 740 mmHg 33%
    15:00 +20°C° 0 mm 1 mps 740 mmHg 34%
    16:00 +20°C° 0 mm 1 mps 740 mmHg 35%
    17:00 +18°C° 0 mm 1 mps 740 mmHg 40%
    18:00 +15°C° 0 mm 1 mps 740 mmHg 46%
    19:00 +13°C° 0 mm 1 mps 740 mmHg 51%
    20:00 +12°C° 0 mm 1 mps 740 mmHg 57%
    21:00 +12°C° 0 mm 2 mps 740 mmHg 62%
    22:00 +10°C° 0 mm 2 mps 740 mmHg 67%
    23:00 +9°C° 0 mm 2 mps 740 mmHg 72%

    Tomorrow, 22 April, Monday

    Time Temperature Precipitation Wind Pressure Humidity
    00:00 +9°C° 0 mm 2 mps 740 mmHg 77%
    01:00 +8°C° 0 mm 2 mps 740 mmHg 81%
    02:00 +8°C° 0 mm 2 mps 740 mmHg 84%
    03:00 +9°C° 0 mm 1 mps 739 mmHg 86%
    04:00 +8°C° 0 mm 1 mps 739 mmHg 88%
    05:00 +10°C° 0 mm 1 mps 739 mmHg 83%
    06:00 +10°C° 0 mm 2 mps 739 mmHg 77%
    07:00 +13°C° 0 mm 2 mps 739 mmHg 71%
    08:00 +15°C° 0 mm 2 mps 739 mmHg 66%
    09:00 +16°C° 0 mm 3 mps 739 mmHg 60%
    10:00 +18°C° 0 mm 3 mps 738 mmHg 55%
    11:00 +19°C° 0 mm 4 mps 738 mmHg 53%
    12:00 +19°C° 0 mm 4 mps 738 mmHg 52%
    13:00 +20°C° 0 mm 5 mps 738 mmHg 51%
    14:00 +20°C° 0 mm 5 mps 737 mmHg 53%
    15:00 +19°C° 0 mm 5 mps 737 mmHg 56%
    16:00 +19°C° 0 mm 5 mps 737 mmHg 59%
    17:00 +17°C° 0 mm 4 mps 737 mmHg 65%
    18:00 +14°C° 0 mm 4 mps 737 mmHg 71%
    19:00 +13°C° 0 mm 3 mps 737 mmHg 77%
    20:00 +12°C° 0.2 mm 3 mps 737 mmHg 78%
    21:00 +11°C° 0.2 mm 3 mps 738 mmHg 79%
    22:00 +11°C° 0.2 mm 3 mps 738 mmHg 80%
    23:00 +11°C° 0.7 mm 3 mps 738 mmHg 83%

    Day after tomorrow, 23 April, Tuesday

    Time Temperature Precipitation Wind Pressure Humidity
    00:00 +10°C° 0.7 mm 3 mps 738 mmHg 85%
    01:00 +10°C° 0.7 mm 3 mps 738 mmHg 88%
    02:00 +10°C° 0 mm 3 mps 738 mmHg 88%
    03:00 +9°C° 0 mm 3 mps 738 mmHg 89%
    04:00 +9°C° 0 mm 2 mps 738 mmHg 90%
    05:00 +10°C° 0 mm 3 mps 738 mmHg 86%
    06:00 +11°C° 0 mm 3 mps 738 mmHg 82%
    07:00 +11°C° 0 mm 4 mps 738 mmHg 78%
    08:00 +13°C° 0 mm 4 mps 738 mmHg 73%
    09:00 +14°C° 0 mm 5 mps 738 mmHg 67%
    10:00 +16°C° 0 mm 5 mps 739 mmHg 62%
    11:00 +16°C° 0 mm 6 mps 738 mmHg 60%
    12:00 +17°C° 0 mm 6 mps 738 mmHg 59%
    13:00 +17°C° 0 mm 6 mps 738 mmHg 57%
    14:00 +17°C° 0 mm 6 mps 738 mmHg 60%
    15:00 +16°C° 0 mm 5 mps 738 mmHg 62%
    16:00 +15°C° 0 mm 5 mps 738 mmHg 65%
    17:00 +14°C° 0 mm 4 mps 738 mmHg 70%
    18:00 +13°C° 0 mm 4 mps 739 mmHg 75%
    19:00 +12°C° 0 mm 3 mps 739 mmHg 80%
    20:00 +11°C° 0 mm 3 mps 739 mmHg 83%
    21:00 +12°C° 0 mm 2 mps 740 mmHg 86%
    22:00 +10°C° 0 mm 2 mps 740 mmHg 89%
    23:00 +10°C° 0 mm 2 mps 740 mmHg 90%

    24 April, Wednesday

    Time Temperature Precipitation Wind Pressure Humidity
    00:00 +9°C° 0 mm 2 mps 741 mmHg 90%
    01:00 +9°C° 0 mm 2 mps 741 mmHg 91%
    02:00 +9°C° 0 mm 2 mps 741 mmHg 90%
    03:00 +10°C° 0 mm 1 mps 741 mmHg 90%
    04:00 +10°C° 0 mm 1 mps 741 mmHg 89%
    05:00 +11°C° 0 mm 1 mps 741 mmHg 83%
    06:00 +13°C° 0 mm 2 mps 741 mmHg 77%
    07:00 +15°C° 0 mm 2 mps 741 mmHg 71%
    08:00 +17°C° 0 mm 2 mps 741 mmHg 65%
    09:00 +19°C° 0 mm 3 mps 741 mmHg 58%
    10:00 +21°C° 0 mm 3 mps 741 mmHg 51%
    11:00 +22°C° 0 mm 3 mps 741 mmHg 50%
    12:00 +23°C° 0 mm 4 mps 741 mmHg 48%
    13:00 +25°C° 0 mm 4 mps 740 mmHg 46%
    14:00 +23°C° 0 mm 4 mps 740 mmHg 48%
    15:00 +23°C° 0 mm 4 mps 740 mmHg 51%
    16:00 +23°C° 0 mm 5 mps 740 mmHg 53%
    17:00 +21°C° 0 mm 4 mps 740 mmHg 62%
    18:00 +18°C° 0 mm 3 mps 740 mmHg 70%
    19:00 +16°C° 0 mm 3 mps 740 mmHg 79%
    20:00 +15°C° 0 mm 2 mps 741 mmHg 81%
    21:00 +15°C° 0 mm 2 mps 741 mmHg 82%
    22:00 +14°C° 0 mm 2 mps 741 mmHg 84%
    23:00 +13°C° 0 mm 2 mps 741 mmHg 84%

    25 April, Thursday

    Time Temperature Precipitation Wind Pressure Humidity
    00:00 +13°C° 0 mm 2 mps 741 mmHg 84%
    01:00 +13°C° 0 mm 2 mps 741 mmHg 85%
    02:00 +13°C° 0 mm 1 mps 741 mmHg 84%
    03:00 +12°C° 0 mm 1 mps 741 mmHg 84%
    04:00 +12°C° 0 mm 1 mps 741 mmHg 84%
    05:00 +14°C° 0 mm 1 mps 741 mmHg 78%
    06:00 +16°C° 0 mm 1 mps 741 mmHg 73%
    07:00 +18°C° 0 mm 1 mps 742 mmHg 67%
    08:00 +20°C° 0 mm 1 mps 742 mmHg 61%
    09:00 +21°C° 0 mm 2 mps 742 mmHg 56%
    10:00 +24°C° 0 mm 2 mps 742 mmHg 51%
    11:00 +25°C° 0 mm 2 mps 741 mmHg 49%
    12:00 +26°C° 0 mm 2 mps 741 mmHg 47%
    13:00 +27°C° 0 mm 3 mps 741 mmHg 45%
    14:00 +26°C° 0.2 mm 3 mps 740 mmHg 51%
    15:00 +25°C° 0.2 mm 3 mps 740 mmHg 57%
    16:00 +24°C° 0.2 mm 3 mps 740 mmHg 62%
    17:00 +22°C° 0.2 mm 3 mps 740 mmHg 69%
    18:00 +20°C° 0.2 mm 2 mps 740 mmHg 76%
    19:00 +18°C° 0.2 mm 2 mps 740 mmHg 83%
    20:00 +18°C° 0.2 mm 2 mps 740 mmHg 84%
    21:00 +18°C° 0.2 mm 2 mps 740 mmHg 85%
    22:00 +17°C° 0.2 mm 2 mps 740 mmHg 85%
    23:00 +17°C° 0.6 mm 2 mps 740 mmHg 87%

    26 April, Friday

    Time Temperature Precipitation Wind Pressure Humidity
    00:00 +17°C° 0.6 mm 2 mps 740 mmHg 88%
    01:00 +16°C° 0.6 mm 2 mps 739 mmHg 89%
    02:00 +16°C° 0 mm 2 mps 739 mmHg 89%
    03:00 +15°C° 0 mm 1 mps 739 mmHg 90%
    04:00 +15°C° 0 mm 1 mps 739 mmHg 90%
    05:00 +16°C° 0 mm 1 mps 739 mmHg 85%
    06:00 +18°C° 0 mm 1 mps 739 mmHg 79%
    07:00 +18°C° 0 mm 2 mps 739 mmHg 74%
    08:00 +20°C° 0 mm 2 mps 739 mmHg 67%
    09:00 +21°C° 0 mm 2 mps 739 mmHg 61%
    10:00 +24°C° 0 mm 2 mps 738 mmHg 55%
    11:00 +25°C° 0.1 mm 2 mps 738 mmHg 52%
    12:00 +26°C° 0.1 mm 2 mps 738 mmHg 49%
    13:00 +27°C° 0.1 mm 2 mps 737 mmHg 45%
    14:00 +26°C° 0.3 mm 2 mps 737 mmHg 48%
    15:00 +26°C° 0.3 mm 2 mps 737 mmHg 50%
    16:00 +26°C° 0.3 mm 2 mps 736 mmHg 53%
    17:00 +24°C° 0.2 mm 2 mps 736 mmHg 60%
    18:00 +21°C° 0.2 mm 2 mps 736 mmHg 68%
    19:00 +19°C° 0.2 mm 2 mps 737 mmHg 75%
    20:00 +18°C° 0.2 mm 2 mps 737 mmHg 78%
    21:00 +17°C° 0.2 mm 2 mps 737 mmHg 81%
    22:00 +17°C° 0.2 mm 2 mps 737 mmHg 84%
    23:00 +16°C° 0 mm 1 mps 737 mmHg 85%
    Show more